Preview of NWS' New Version of Forecast
This preview is not operational and should not be used for support decisions.

Regional Weather Roundup (RWR)

Issued by National Weather Service (NWS)

                            
000
ASUS43 KDMX 240906
RWRIA 

WEATHER ROUNDUP FOR IOWA
NATIONAL WEATHER SERVICE DES MOINES IA
400 AM CDT MON JUN 24 2019

NOTE: "FAIR" INDICATES FEW OR NO CLOUDS BELOW 12,000 FEET WITH NO
SIGNIFICANT WEATHER AND/OR OBSTRUCTIONS TO VISIBILITY.

* - THESE STATIONS ARE NOT NWS STATIONS...THUS NOT UNDER NWS
QUALITY CONTROL.  THEY ALSO DO NOT REPORT WEATHER SUCH 
AS PRECIPITATION OR FOG.  

IAZ001>003-012>014-020>022-031>034-043>046-241000-
   NORTHWEST IOWA
  
CITY           SKY/WX    TMP DP  RH WIND       PRES   REMARKS
CARROLL *      CLOUDY    61  59  94 NW15      29.69F                  
CHEROKEE *     CLOUDY    59  58  97 NW10G16   29.72S                  
DENISON *      CLOUDY    61  61 100 NW8G16    29.73F                  
LE MARS *      DRIZZLE   59  59 100 W5        29.74S                  
SHELDON *        N/A     59  59 100 W10       29.70F                  
SIOUX CITY     CLOUDY    59  56  89 W9        29.74F                  
SPENCER        CLOUDY    62  58  86 W10       29.69S                  
STORM LAKE *   DRIZZLE   59  59 100 NW20      29.68F                  
$$
 
IAZ055>058-069>071-079>083-090>094-241000-
   SOUTHWEST IOWA
  
CITY           SKY/WX    TMP DP  RH WIND       PRES   REMARKS
ATLANTIC *     CLOUDY    61  61 100 NW10G17   29.71S                  
AUDUBON *      CLOUDY    61  57  88 CALM      29.72S                  
CLARINDA *     CLOUDY    64  63  94 NW10      29.74S                  
COUNCIL BLFS * CLOUDY    61  61 100 NW8       29.73S                  
CRESTON *        N/A     63  63 100 W13G20    29.70S                  
HARLAN  *      CLOUDY    61  59  94 NW12      29.72F                  
LAMONI         MOCLDY    66  63  90 W10       29.69S                  
RED OAK *      CLOUDY    63  61  94 NW10      29.73F                  
SHENANDOAH *   CLOUDY    63  61  94 NW9G16    29.73S                  
$$
 
IAZ047>049-059>061-072>074-084-241000-
   CENTRAL IOWA
  
CITY           SKY/WX    TMP DP  RH WIND       PRES   REMARKS
AMES           CLOUDY    67  65  93 W9        29.64S                  
ANKENY *       CLOUDY    66  64  94 W15       29.65F                  
BOONE *        CLOUDY    63  63 100 W15G22    29.65R                  
CHARITON *     CLOUDY    66  66 100 W9        29.66S                  
DES MOINES     CLOUDY    66  64  93 W13       29.64F                  
GRINNELL*      MOCLDY    65  64  96 SW7       29.66F                  
KNOXVILLE *    CLOUDY    66  64  94 SW12      29.65S                  
MARSHALLTOWN   CLOUDY    65  65 100 SW7       29.63S                  
NEWTON *       CLOUDY    64  64 100 SW6       29.64F                  
PELLA *        CLOUDY    66  64  93 W8        29.66F                  
PERRY *        CLOUDY    63  63 100 W16       29.68S                  
$$
 
IAZ004>006-015-016-023>025-035-036-241000-
   NORTH CENTRAL IOWA
  
CITY           SKY/WX    TMP DP  RH WIND       PRES   REMARKS
ALGONA *       CLOUDY    61  61 100 NW12      29.66S FOG              
CLARION *      CLOUDY    63  63 100 NW10      29.65S                  
ESTHERVILLE    CLOUDY    60  58  92 W12       29.66S                  
FORT DODGE *   CLOUDY    61  58  90 W8        29.68R                  
MASON CITY     CLOUDY    64  62  93 NW9       29.63S                  
FOREST CITY *  CLOUDY    61  61 100 NW12      29.64S                  
IOWA FALLS *   CLOUDY    66  65  97 W7        29.65S                  
$$

IAZ007>011-017>019-026>030-037>042-050>054-066-241000-
   NORTHEAST IOWA
  
CITY           SKY/WX    TMP DP  RH WIND       PRES   REMARKS
CEDAR RAPIDS   CLOUDY    67  66  97 SW8       29.63S                  
CHARLES CITY * CLOUDY    64  64 100 SW6       29.62S                  
CLINTON *      CLOUDY    69  68  96 SW6       29.64R                  
DECORAH *      FAIR      66  66 100 VRB5      29.61S                  
DUBUQUE        MOCLDY    63  63 100 SW5       29.63F FOG              
MONTICELLO *   MOCLDY    64  64 100 CALM      29.63R                  
OELWEIN *      MOCLDY    66  66 100 SW7       29.64S                  
WATERLOO       CLOUDY    67  65  93 SW5       29.62S                  
$$
 
IAZ064-065-067-068-078-241000-
   EAST CENTRAL IOWA
  
CITY           SKY/WX    TMP DP  RH WIND       PRES   REMARKS
DAVENPORT      CLOUDY    69  67  93 SW6       29.65S                  
IOWA CITY      CLOUDY    68  66  93 SW6       29.65S                  
MT. PLEASANT * MOCLDY    68  68 100 CALM      29.66F                  
MUSCATINE *    CLOUDY    70  68  94 SW10      29.65S                  
QUAD CITIES    CLOUDY    70  67  90 W5        29.63R                  
$$
 
IAZ062-063-075>077-085>089-095>099-241000-
   SOUTHEAST IOWA
  
CITY           SKY/WX    TMP DP  RH WIND       PRES   REMARKS
BURLINGTON     CLOUDY    69  66  90 SW10      29.66S                  
FAIRFIELD *    CLEAR     66  66 100 SW6       29.66F                  
FORT MADISON * CLEAR     68  68 100 SW3       29.68S                  
KEOKUK *       PTCLDY    68  66  94 SW6       29.67F                  
OSKALOOSA *    FAIR      65  63  93 SW8       29.65F                  
CENTERVILLE *  FAIR      64  64 100 SW7       29.68F                  
OTTUMWA        MOCLDY    66  64  93 SW6       29.65F                  
WASHINGTON *   CLOUDY    68  68 100 W8        29.64F                  
$$

ABBREVIATIONS USED IN REMARKS
   TC - TEMPERATURES IN CELSIUS
  WCI - WIND CHILL INDEX
   HX - HEAT INDEX
  VSB - VISIBILITY  
$$